EW3531 Weather Reports


Display with metric or nautical units.
time (UTC)temp
F
wind
direction
speed
MPH
gust
MPH
rain 1hr
in
rain 24hr
in
rain mn
in
humidity
%
barometer
mb
20260506223055 65 161 7.0 12.0 0.00 0.00 0.00 73 1016.5
20260506221554 65 178 7.0 14.0 0.00 0.00 0.00 74 1016.8
20260506220059 65 199 6.0 13.0 0.00 0.00 0.00 74 1017.1
20260506214552 65 211 6.0 13.0 0.00 0.00 0.00 73 1017.3
20260506213055 66 157 7.0 14.0 0.00 0.00 0.00 73 1017.3
20260506211550 66 186 6.0 12.0 0.00 0.00 0.00 73 1017.4
20260506210059 66 190 6.0 11.0 0.00 0.00 0.00 72 1017.5
20260506204551 66 141 7.0 11.0 0.00 0.00 0.00 71 1017.7
20260506203137 66 170 5.0 11.0 0.00 0.00 0.00 72 1017.6
20260506201648 66 182 7.0 10.0 0.00 0.00 0.00 72 1017.8
20260506200050 66 253 6.0 10.0 0.00 0.00 0.00 71 1017.9
20260506194548 66 164 6.0 10.0 0.00 0.00 0.00 70 1018.1
20260506193044 67 135 5.0 11.0 0.00 0.00 0.00 71 1018.1
20260506191545 65 157 5.0 10.0 0.00 0.00 0.00 73 1018.2
20260506190048 66 173 5.0 10.0 0.00 0.00 0.00 72 1018.2
20260506184552 65 198 5.0 12.0 0.00 0.00 0.00 74 1018.4
20260506183039 65 191 5.0 12.0 0.00 0.00 0.00 73 1018.3
20260506181539 65 196 6.0 10.0 0.00 0.00 0.00 74 1018.5
20260506180039 65 165 7.0 11.0 0.00 0.00 0.00 73 1018.5
20260506174538 65 198 5.0 11.0 0.00 0.00 0.00 72 1018.5
20260506173047 66 123 5.0 8.0 0.00 0.00 0.00 71 1018.4
20260506171536 65 142 2.0 9.0 0.00 0.00 0.00 71 1018.4
20260506170033 65 192 4.0 9.0 0.00 0.00 0.00 71 1018.3
20260506164531 65 149 2.0 8.0 0.00 0.00 0.00 72 1018.3
20260506163045 64 161 3.0 8.0 0.00 0.00 0.00 72 1018.3
20260506161528 64 142 2.0 7.0 0.00 0.00 0.00 73 1018.3
20260506160025 63 157 4.0 7.0 0.00 0.00 0.00 73 1018.3
20260506154531 62 51 1.0 4.0 0.00 0.00 0.00 73 1018.2
20260506153018 61 177 0.0 5.0 0.00 0.00 0.00 75 1018.3
20260506151515 60 50 0.0 5.0 0.00 0.00 0.00 76 1018.2
20260506150011 59 58 3.0 6.0 0.00 0.00 0.00 78 1018.2
20260506144506 57 39 3.0 6.0 0.00 0.00 0.00 81 1018.1
20260506143003 56 5 4.0 6.0 0.00 0.00 0.00 85 1017.9
20260506141501 54 31 2.0 4.0 0.00 0.00 0.00 88 1017.9
20260506134559 52 9 1.0 2.0 0.00 0.00 0.00 89 1017.7
20260506133058 52 326 0.0 2.0 0.00 0.00 0.00 88 1017.6
20260506131607 52 360 0.0 0.0 0.00 0.00 0.00 87 1017.6
20260506130056 52 45 0.0 0.0 0.00 0.00 0.00 87 1017.4
20260506124556 53 155 0.0 0.0 0.00 0.00 0.00 87 1017.3
20260506123057 53 161 0.0 0.0 0.00 0.00 0.00 87 1017.3
20260506121604 53 227 0.0 0.0 0.00 0.00 0.00 87 1017.1
20260506120048 53 355 0.0 0.0 0.00 0.00 0.00 87 1016.9
20260506114546 54 355 0.0 1.0 0.00 0.00 0.00 87 1016.8
20260506113047 54 355 1.0 3.0 0.00 0.00 0.00 87 1016.8
20260506111545 54 11 0.0 3.0 0.00 0.00 0.00 87 1016.7
20260506110044 54 40 2.0 3.0 0.00 0.00 0.00 87 1016.7
20260506104547 54 13 1.0 3.0 0.00 0.00 0.00 87 1016.7
20260506103043 54 5 0.0 3.0 0.00 0.00 0.00 87 1016.7
20260506101542 54 338 1.0 3.0 0.00 0.00 0.00 87 1016.6
20260506100040 54 27 1.0 3.0 0.00 0.00 0.00 87 1016.7
20260506094539 54 5 1.0 4.0 0.00 0.00 0.00 87 1016.7
20260506093037 55 38 0.0 0.0 0.00 0.00 0.00 86 1016.9
20260506091536 55 9 0.0 2.0 0.00 0.00 0.00 87 1017.0
20260506090034 55 5 1.0 4.0 0.00 0.00 0.00 87 1017.0
20260506084542 55 24 2.0 9.0 0.00 0.00 0.00 87 1017.1
20260506083033 55 34 2.0 6.0 0.00 0.00 0.00 87 1017.1
20260506081532 56 37 4.0 8.0 0.00 0.00 0.00 87 1017.1
20260506073025 55 9 4.0 8.0 0.00 0.00 0.00 87 1017.0
20260506071522 55 9 3.0 8.0 0.00 0.00 0.00 87 1016.9
20260506061515 56 17 3.0 5.0 0.00 0.00 0.00 87 1016.3
20260506060116 56 26 3.0 7.0 0.00 0.00 0.00 87 1016.2
20260506044513 57 355 3.0 5.0 0.00 0.00 0.00 86 1015.6
20260506043004 57 29 2.0 4.0 0.00 0.00 0.00 86 1015.5
20260506041504 58 62 1.0 4.0 0.00 0.00 0.00 85 1015.4
20260506040001 58 72 2.0 4.0 0.00 0.00 0.00 85 1015.0
20260506034602 58 21 1.0 2.0 0.00 0.00 0.00 83 1014.8
20260506033058 59 77 0.0 3.0 0.00 0.00 0.00 82 1014.6
20260506031558 59 130 3.0 6.0 0.00 0.00 0.00 80 1014.4
20260506030058 60 105 3.0 5.0 0.00 0.00 0.00 77 1014.2
20260506024607 60 200 0.0 3.0 0.00 0.00 0.00 77 1013.9
20260506023110 61 152 2.0 8.0 0.00 0.00 0.00 76 1013.6
20260506021556 61 178 2.0 6.0 0.00 0.00 0.00 75 1013.6
20260506020057 62 206 3.0 7.0 0.00 0.00 0.00 75 1013.5
20260506014554 62 156 3.0 7.0 0.00 0.00 0.00 74 1013.4
20260506013057 63 173 3.0 7.0 0.00 0.00 0.00 75 1013.4
20260506011552 63 166 4.0 9.0 0.00 0.00 0.00 76 1013.5
20260506010051 62 184 3.0 11.0 0.00 0.00 0.00 76 1013.5
20260506004552 62 186 4.0 11.0 0.00 0.00 0.00 77 1013.5
20260506003051 62 221 7.0 12.0 0.00 0.00 0.00 77 1013.5
20260506001555 61 148 4.0 11.0 0.00 0.00 0.00 76 1013.5
20260506000054 62 168 8.0 15.0 0.00 0.00 0.00 75 1013.5
20260505234546 63 173 6.0 11.0 0.00 0.00 0.00 75 1013.5
20260505233051 63 176 6.0 13.0 0.00 0.00 0.00 75 1013.4
20260505231547 63 188 9.0 18.0 0.00 0.00 0.00 74 1013.3
20260505230110 63 188 8.0 16.0 0.00 0.00 0.00 74 1013.4
20260505224544 63 181 8.0 15.0 0.00 0.00 0.00 74 1013.6